Flag for Sierra Leone Weather past 2 weeks in Bo, Sierra Leone

Now
82 °F

Scattered clouds.


Feels Like: 91 °F
Forecast: 72 / 81 °F
Wind: 7 mph from Southwest

Location: Lungi

Current Time: Jul 29, 2014 at 11:50:33 AM

Latest Report: Jul 29, 2014 at 11:00 AM


Visibility: N/A

Pressure: 29.95 "Hg

Humidity: 84%

Dew point: 77 °F

Location of BoLocation

Historic Weather in Bo — Graph

°F

Bo temperature yesterday

Maximum temperature yesterday: 84 °F (at 2:00 PM)
Minimum temperature yesterday: 70 °F (at 12:00 AM)
Average temperature yesterday: 77 °F

Past Weeks' High & Low Weather Summary

 TemperatureHumidityPressure
High86 °F (Jul 19, 5:00 PM)100% (Jul 16, 8:00 AM)30.04 "Hg (Jul 16, 8:00 AM)
Low70 °F (Jul 28, 12:00 AM)70% (Jul 14, 4:00 PM)29.83 "Hg (Jul 27, 6:00 PM)
Average79 °F87%29.95 "Hg
* Reported Jul 14 2:00 PM — Jul 29 9:30 AM, Bo, Weather by CustomWeather, © 2014

Note: Actual official high and low records may vary slightly from our data, if they occured in-between our weather recording intervals... More about our weather records

Advertising

Bo weather history for previous 24 hours

 ConditionsComfort  
Time TempWeatherWind HumidityBarometerVisibility
9:30 AM
Jul 29
79 °FPartly sunny.7 mph84%29.95 "HgN/A
9:00 AM79 °FPartly sunny.7 mph84%29.92 "HgN/A
8:30 AM77 °FPartly sunny.7 mph94%29.92 "HgN/A
8:00 AM77 °FRain. Partly sunny.6 mph94%29.92 "Hg5 mi
7:30 AM75 °FRain. Partly sunny.9 mph94%29.92 "Hg5 mi
2:00 AM75 °FPassing clouds.6 mph94%29.92 "HgN/A
1:00 AM75 °FPassing clouds.12 mph94%29.92 "HgN/A
12:00 AM77 °FPassing clouds.9 mph94%29.95 "HgN/A
10:00 PM
Jul 28
77 °FThunderstorms. Passing clouds.7 mph89%29.92 "HgN/A
7:00 PM75 °FThunderstorms. Partly sunny.15 mph94%29.89 "HgN/A
6:00 PM75 °FPartly sunny.3 mph100%29.89 "Hg5 mi
3:00 PM84 °FScattered clouds.7 mph74%29.86 "HgN/A
2:00 PM84 °FScattered clouds.6 mph74%29.86 "HgN/A
12:00 PM82 °FScattered clouds.9 mph79%29.92 "HgN/A
11:30 AM79 °FScattered clouds.5 mph89%29.92 "HgN/A
11:00 AM79 °FScattered clouds.7 mph89%29.92 "HgN/A
Weather by CustomWeather, © 2014

See weather overviewHow to use our weather pages